Regional Weather Roundup
Issued by NWS

Home | Current Version | Previous Version | Text Only | Print | Product List | Glossary On
Versions: 1 2 3 4 5 6 7 8 9 10 11 12 13 14 15 16 17 18 19 20 21 22 23 24 25 26 27 28 29 30 31 32 33 34 35 36 37 38 39 40 41 42 43 44 45 46 47 48 49 50
000
ASUS44 KJAN 171510
RWRMS

MISSISSIPPI HOURLY WEATHER ROUNDUP
NATIONAL WEATHER SERVICE JACKSON MS
1000 AM CDT THU APR 17 2014

NOTE: "FAIR: INDICATES FEW OR NO CLOUDS BELOW 12,000 FEET WITH NO
SIGNIFICANT WEATHER AND/OR OBSTRUCTIONS TO VISIBILITY.

MSZ001>002-007>008-010>013-018>021-025>028-034>036-171600-
NORTHWEST MISSISSIPPI

CITY           SKY/WX    TMP DP  RH WIND       PRES   REMARKS
CLARKSDALE       N/A     57  45  62 E8        30.30R
CLEVELAND      FAIR      58  46  65 E7        30.27S
GREENWOOD      SUNNY     60  44  55 SE7       30.29R
GREENVILLE     SUNNY     58  46  64 SE6       30.26R
GRENADA        FAIR      59  45  58 S8        30.31R
OLIVE BRANCH   MOSUNNY   57  43  58 SE12G22   30.31R
OXFORD         FAIR      55  41  58 SE5       30.32S
TUNICA         SUNNY     57  43  58 SE10      30.31R
$$

MSZ003>006-009-014>017-022>024-029>033-037>039-171600-
NORTHEAST MISSISSIPPI

CITY           SKY/WX    TMP DP  RH WIND       PRES   REMARKS
BELMONT        FAIR      57  41  54 SE6       30.34R
COLUMBUS AFB   SUNNY     59  43  54 SE13      30.32S
CORINTH        FAIR      59  37  44 SE14      30.33S
GOLDN TRIANGLE SUNNY     57  39  51 SE13G21   30.34R
STARKVILLE     FAIR      55  45  67 SE14      30.32R
TUPELO         SUNNY     59  41  51 VRB7      30.32S
$$

MSZ040-058-171600-
CENTRAL MISSISSIPPI

CITY           SKY/WX    TMP DP  RH WIND       PRES   REMARKS
JACKSON INTL   PTSUNNY   58  45  62 E8        30.25S
JACKSON HAWKNS MOSUNNY   59  44  57 E8        30.26S
MERIDIAN KEY   CLOUDY    55  45  68 SE7       30.30R
MERIDIAN NAS   PTSUNNY   56  44  64 SE8       30.31R
RAYMOND        FAIR      59  55  88 E7        30.25R
VICKSBURG      SUNNY     60  47  61 E9        30.24S
$$

MSZ059>079-171600-
SOUTH MISSISSIPPI

CITY           SKY/WX    TMP DP  RH WIND       PRES   REMARKS
BROOKHAVEN     FAIR      55  48  76 E8        30.24S
COLUMBIA       CLOUDY    55  48  76 MISG      30.23S
HATTIESBURG    CLOUDY    56  49  77 E7        30.25S
MCCOMB         PTSUNNY   58  47  66 E7        30.21S
NATCHEZ        PTSUNNY   57  48  72 E9        30.21S
PINE BELT      CLOUDY    54  46  76 E9        30.25S
$$

MSZ080>082-171600-
COASTAL MISSISSIPPI

CITY           SKY/WX    TMP DP  RH WIND       PRES   REMARKS
BAY ST LOUIS   PTSUNNY   64  54  68 E12       30.20S
BILOXI         PTSUNNY   63  55  77 E14       30.21S
PASCAGOULA     CLOUDY    60  53  77 E14       30.22S
GULFPORT       CLOUDY    64  54  69 E10       30.21R
$$



USA.gov is the U.S. government's official web portal to all federal, state and local government web resources and services.